Вернуться в каталог

STARLINK-36280

АктивенСвязьVLEO
NORAD 67211·PAYLOAD·🇺🇸 United States

Запущен Dec 17, 2025 с Vandenberg Space Force Base

Loading…

Ближайшие Пролёты (ближайшие 24 часа)

TLE

СвежийSource: CelesTrak SupGP

Эпоха: Sep 14, 2026, 23:14 UTC

1 67211C 25304V   26257.96854167 -.00003377  00000+0 -28297-3 0  2578
2 67211  70.0015  57.1711 0002683 273.4216 243.1139 14.98338754    14

Отслеживайте STARLINK-36280 в реальном времени с AllMySat

Download on the App Store